Location: Krakow
(50.0830°N, 19.9170°E)
Time: 07:05:40
(UTC+02:00)

Tiros 1 despin weight - Pass Details

Date: 19 March 2026
Orbit: 555 x 592 km, 48.2° (Epoch: 18 April)

Event Time Altitude Azimuth Distance (km) Brightness Sun altitude
Rises 02:35:27 0° 200° (SSW) 2,812 - -29.1°
Reaches altitude 10° 02:38:29 10° 178° (S) 1,913 - -28.7°
Maximum altitude 02:41:07 16° 141° (SE) 1,572 - -28.4°
Exits shadow 02:42:14 15° 123° (ESE) 1,638 ? -28.3°
Drops below altitude 10° 02:43:45 10° 104° (ESE) 1,912 ? -28.1°
Sets 02:46:47 0° 83° (E) 2,811 ? -27.7°
